Regional Weather Roundup
Issued by NWS Memphis, TN

Home | Current Version | Previous Version | Text Only | Print | Product List | Glossary On
Versions: 1 2 3 4 5 6 7 8 9 10 11 12 13 14 15 16 17 18 19 20 21 22 23 24 25 26 27 28 29 30 31 32 33 34 35 36 37 38 39 40 41 42 43 44 45 46 47 48 49 50
000
ASUS44 KMEG 280910
RWRMEG
MEMPHIS CWA HOURLY WEATHER ROUNDUP
NATIONAL WEATHER SERVICE MEMPHIS TN
400 AM CDT TUE JUL 28 2015

...WEST TENNESSEE...

CITY           SKY/WX    TMP DP  RH WIND       PRES   REMARKS
MEMPHIS INTL   CLEAR     81  75  82 S7        29.94F
NWS MEMPHIS      N/A     78 N/A N/A MISG        N/A
JACKSON        PTCLDY    76  74  93 S3        29.95S FOG
LEXINGTON      CLOUDY    75  73  94 CALM      29.95S VSB 1/4
DYERSBURG        N/A    N/A N/A N/A MISG        N/A
PARIS          CLEAR     72  72 100 CALM      29.96S


...EASTERN ARKANSAS...

CITY           SKY/WX    TMP DP  RH WIND       PRES   REMARKS
JONESBORO      CLEAR     76  76 100 CALM      29.92S
WEST MEMPHIS   CLEAR     78  77  96 S5        29.92F
BATESVILLE     CLEAR     81  73  78 SE5       29.92F
NEWPORT        CLEAR     79  78  96 S3        29.92F
WALNUT RIDGE   CLEAR     81  75  83 S3        29.92S
BLYTHEVILLE    CLEAR     80  79  96 CALM      29.93S
SEARCY         CLEAR     77  76  96 CALM      29.94F
STUTTGART      CLEAR     82  73  74 S3        29.93S
PINE BLUFF     CLEAR     79  74  84 CALM      29.93S
MONTICELLO     CLEAR     78  74  87 CALM      29.94R


...NORTH MISSISSIPPI...

CITY           SKY/WX    TMP DP  RH WIND       PRES   REMARKS
TUPELO         CLEAR     79  75  87 W3        29.95S
OLIVE BRANCH     N/A     75  75 100 CALM      29.95S
TUNICA         CLEAR     79  77  94 CALM      29.95S FOG
CLARKSDALE     CLEAR     77  77 100 CALM      29.94S
CORINTH        FOG       75  73  94 CALM      29.95S VSB 1/2
GREENWOOD      CLEAR     76  72  87 CALM      29.94S
COLUMBUS       CLEAR     75  74  97 SE1       29.95S
STARKVILLE     FAIR      72  72 100 CALM      29.96S FOG
GOLDEN TRIANGL CLEAR     77  72  83 CALM      29.96R


...SOUTHEAST MISSOURI...

CITY           SKY/WX    TMP DP  RH WIND       PRES   REMARKS
WEST PLAINS    CLEAR     77  72  84 CALM      29.97S
POPLAR BLUFF   CLEAR     76  74  93 CALM      29.92S
CAPE GIRARDEAU PTCLDY    74  74 100 CALM      29.93S


...NORTHWEST ALABAMA...

CITY           SKY/WX    TMP DP  RH WIND       PRES   REMARKS
MUSCLE SHOALS  CLEAR     76  73  91 CALM      29.98R


...MIDDLE TENNESSEE...

CITY           SKY/WX    TMP DP  RH WIND       PRES   REMARKS
NASHVILLE      MOCLDY    78  76  93 CALM      29.97R
CLARKSVILLE    MOCLDY    75  72  90 NE3       29.96R
COLUMBIA       CLEAR     75  75 100 CALM      29.96S


...WESTERN KENTUCKY...

CITY           SKY/WX    TMP DP  RH WIND       PRES   REMARKS
PADUCAH        MOCLDY    76  74  93 CALM      29.94R
FORT CAMPBELL  MOCLDY    74  73  95 E1        29.95S


...CENTRAL ARKANSAS...

CITY           SKY/WX    TMP DP  RH WIND       PRES   REMARKS
LITTLE ROCK    CLEAR     81  75  82 CALM      29.93S


SKY/WX REPORTED AS FAIR MEANS FEW OR NO CLOUDS BELOW
12 THOUSAND FEET.




USA.gov is the U.S. government's official web portal to all federal, state and local government web resources and services.